Weather History for Lander, WY

Change the Weather History Date:

Tuesday, December 10, 2013

  Actual Average Record
Temperature  
Mean Temperature 15 °F 21 °F  
Max Temperature 27 °F 32 °F 65 °F (1933)
Min Temperature 3 °F 10 °F -24 °F (1972)
Degree Days  
Heating Degree Days 50 44  
Month to date heating degree days 560 432  
Since 1 July heating degree days 2448 2305  
Cooling Degree Days 0 0  
Month to date cooling degree days 0 0  
Year to date cooling degree days 743 472  
Moisture  
Dew Point 5 °F    
Average Humidity 63    
Maximum Humidity 76    
Minimum Humidity 50    
Precipitation  
Precipitation 0.00 in 0.02 in 0.57 in (1949)
Month to date precipitation 0.24 0.22  
Year to date precipitation 15.09 12.30  
Snow  
Snow 0.00 in 0.30 in - ()
Month to date snowfall 4.3 3.8  
Since 1 July snowfall 33.8 29.4  
Snow Depth 2.00 in    
Sea Level Pressure  
Sea Level Pressure 30.22 in    
Wind  
Wind Speed 6 mph (South)    
Max Wind Speed 16 mph    
Max Gust Speed 19 mph    
Visibility 10 miles    
Events      
T = Trace of Precipitation, MM = Missing Value Source: NWS Daily Summary

Daily Weather History Graph

Daily Weather History Graph

Search for Another Location

Airport:

Trip Planner

Search our weather history database for the weather conditions in past years. The results will help you decide how hot, cold, wet, or windy it might be!

Date:

Astronomy

Dec. 10, 2013 Rise Set
Actual Time 7:34 AM MST 4:40 PM MST
Civil Twilight 7:02 AM MST 5:12 PM MST
Nautical Twilight 6:27 AM MST 5:48 PM MST
Astronomical Twilight 5:52 AM MST 6:22 PM MST
Moon 12:51 PM MST (12/10) 12:48 AM MST (12/10)
Length of Visible Light 10h 10m
Length of Day
9h 05m
Waxing Gibbous, 62% of the Moon is Illuminated
Dec 10
Waxing Gibbous
Dec 17
Full
Dec 25
Last Quarter
Jan 1
New
Jan 7
First Quarter

Hourly Weather History & Observations

Time (MST) Temp. Windchill Dew Point Humidity Pressure Visibility Wind Dir Wind Speed Gust Speed Precip Events Conditions
12:53 AM 10.9 °F 1.4 °F 1.0 °F 64% 30.19 in 10.0 mi WSW 5.8 mph - N/A   Clear
1:53 AM 12.0 °F -0.4 °F 1.9 °F 64% 30.16 in 10.0 mi WSW 9.2 mph - N/A   Clear
2:53 AM 9.0 °F 0.6 °F 1.0 °F 70% 30.15 in 10.0 mi WSW 4.6 mph - N/A   Clear
3:53 AM 10.9 °F 2.9 °F 1.0 °F 64% 30.12 in 10.0 mi SE 4.6 mph - N/A   Clear
4:53 AM 6.1 °F -4.3 °F -0.9 °F 73% 30.17 in 10.0 mi SSW 5.8 mph - N/A   Clear
5:53 AM 10.0 °F 0.4 °F 1.0 °F 67% 30.13 in 10.0 mi SSE 5.8 mph - N/A   Clear
6:53 AM 6.1 °F -6.8 °F -0.0 °F 76% 30.18 in 10.0 mi WNW 8.1 mph - N/A   Clear
7:53 AM 14.0 °F 8.2 °F 5.0 °F 67% 30.15 in 10.0 mi SW 3.5 mph - N/A   Partly Cloudy
8:53 AM 10.9 °F 4.7 °F 3.0 °F 70% 30.17 in 10.0 mi East 3.5 mph - N/A   Clear
9:53 AM 14.0 °F 5.1 °F 6.1 °F 71% 30.18 in 10.0 mi East 5.8 mph - N/A   Overcast
10:53 AM 17.1 °F - 8.1 °F 68% 30.20 in 10.0 mi Calm Calm - N/A   Partly Cloudy
11:53 AM 23.0 °F 14.7 °F 10.0 °F 58% 30.15 in 10.0 mi ESE 6.9 mph - N/A   Scattered Clouds
12:53 PM 25.0 °F 14.8 °F 10.9 °F 55% 30.13 in 10.0 mi SE 10.4 mph - N/A   Clear
1:53 PM 26.1 °F 17.6 °F 12.0 °F 55% 30.12 in 10.0 mi SSE 8.1 mph - N/A   Clear
2:53 PM 26.1 °F 19.4 °F 10.9 °F 53% 30.15 in 10.0 mi WSW 5.8 mph - N/A   Clear
3:53 PM 24.1 °F 13.1 °F 10.9 °F 57% 30.19 in 10.0 mi WSW 11.5 mph - N/A   Clear
4:53 PM 21.9 °F 17.2 °F 8.1 °F 55% 30.26 in 10.0 mi WNW 3.5 mph - N/A   Clear
5:53 PM 21.9 °F 17.2 °F 7.0 °F 53% 30.28 in 10.0 mi Variable 3.5 mph - N/A   Clear
6:53 PM 16.0 °F 5.3 °F 5.0 °F 62% 30.33 in 10.0 mi WSW 8.1 mph - N/A   Clear
7:53 PM 10.9 °F 2.9 °F 3.0 °F 70% 30.33 in 10.0 mi East 4.6 mph - N/A   Clear
8:53 PM 12.0 °F 2.7 °F 3.9 °F 70% 30.36 in 10.0 mi ESE 5.8 mph - N/A   Clear
9:53 PM 15.1 °F 7.7 °F 3.9 °F 61% 30.35 in 10.0 mi Variable 4.6 mph - N/A   Clear
10:53 PM 12.9 °F 6.9 °F 3.0 °F 65% 30.38 in 10.0 mi Variable 3.5 mph - N/A   Clear
11:53 PM 12.0 °F - 3.0 °F 67% 30.35 in 10.0 mi Calm Calm - N/A   Clear